Regional Weather Roundup
Issued by NWS

Home | Current Version | Previous Version | Text Only | Print | Product List | Glossary On
Versions: 1 2 3 4 5 6 7 8 9 10 11 12 13 14 15 16 17 18 19 20 21 22 23 24 25 26 27 28 29 30 31 32 33 34 35 36 37 38 39 40 41 42 43 44 45 46 47 48 49 50
000
ASUS43 KDTX 271901
RWRMI
MICHIGAN HOURLY REGIONAL WEATHER ROUNDUP
NATIONAL WEATHER SERVICE DETROIT/PONTIAC MI
300 PM EDT TUE JUN 27 2017

NOTE: "FAIR" INDICATES FEW OR NO CLOUDS BELOW 12,000 FEET WITH NO
SIGNIFICANT WEATHER AND/OR OBSTRUCTION TO VISIBILITY.

MIZ047>049-052>055-059>063-066>070-074>076-081>083-272000-
SOUTHEAST LOWER MICHIGAN

CITY           SKY/WX    TMP DP  RH WIND       PRES   REMARKS
ADRIAN         PTSUNNY   71  43  36 W10G18    30.08F
ALMA           PTSUNNY   70  46  42 W14G25    30.05S
ANN ARBOR      MOSUNNY   71  47  42 W9        30.06F
BAD AXE        MOSUNNY   69  46  43 W13G18    30.03S
CARO           MOSUNNY   69  49  48 SW10      30.03S
DETROIT CITY   PTSUNNY   71  43  36 W9        30.05F
DETROIT        PTSUNNY   71  44  37 SW6       30.06F
FLINT          MOSUNNY   71  46  40 W13G22    30.04F
GROSSE ILE     MOSUNNY   71  44  37 SW7       30.05F
HILLSDALE      PTSUNNY   70  43  37 NW8       30.08F
HOWELL         PTSUNNY   70  42  35 W16       30.05F

CITY           SKY/WX    TMP DP  RH WIND       PRES   REMARKS
JACKSON        PTSUNNY   72  47  40 W15       30.07F
LAMBERTVILLE   PTSUNNY   71  45  39 W8        30.07F
LANSING        PTSUNNY   72  46  39 NW8       30.06F
LAPEER         FAIR      70  44  38 NW8G16    30.04F
MASON          SUNNY     71  47  42 W13G18    30.06F
MONROE         CLOUDY    70  43  37 W9        30.06F
MT. CLEMENS    MOSUNNY   69  45  40 W10       30.03F
PONTIAC        PTSUNNY   69  44  40 W8G20     30.04F
PORT HOPE        N/A     70  46  42 W12G18    29.99F
PORT HURON     PTSUNNY   68  45  42 W8        30.04S
TRI CITIES     LGT RAIN  66  55  67 SE7       30.03F
MIDLAND        CLOUDY    69  50  49 N7        30.02F
TROY           PTSUNNY   71  38  29 NW5G17    30.06F
SAGINAW HB     LGT RAIN  61  50  67 W5        30.04R
$$
MIZ043>046-050>051-056>058-064>065-071>073-077>080-272000-
SOUTHWEST LOWER MICHIGAN

CITY           SKY/WX    TMP DP  RH WIND       PRES   REMARKS
BATTLE CREEK   PTSUNNY   71  44  37 NW15      30.09F
BENTON HARBOR  SUNNY     71  45  39 W13G18    30.11F
BIG RAPIDS     PTSUNNY   68  43  40 W9G20     30.04S
COLDWATER      CLOUDY    70  42  36 W12G18    30.09F
FREMONT        FAIR      71  45  38 NW13G21   30.06S
HOLLAND        SUNNY     69  51  52 W15       30.10F
GRAND RAPIDS   PTSUNNY   71  49  45 W16       30.07S
IONIA          FAIR      71  45  38 W17G23    30.05F
KALAMAZOO      MOSUNNY   73  42  32 NW15      30.09F
LUDINGTON      MOSUNNY   64  54  68 SW10      30.06S
MARSHALL       PTSUNNY   73  44  35 NW12G18   30.07F
MOUNT PLEASANT MOSUNNY   69  45  42 W7        30.03S
MUSKEGON       MOSUNNY   68  52  56 W10       30.09S
SOUTH HAVEN    SUNNY     68  50  52 W10       30.11S
$$
MIZ016>042-272000-
NORTHERN LOWER MICHIGAN

CITY           SKY/WX    TMP DP  RH WIND       PRES   REMARKS
ALPENA         CLOUDY    71  50  47 W8        29.98F
BEAVER ISLAND  MOSUNNY   66  48  52 SW8       30.01S
BELLAIRE       CLOUDY    68  45  43 W6        30.01F
CADILLAC       MOSUNNY   69  46  43 W12G17    30.03S
CHARLEVOIX     MOSUNNY   65  54  68 W9        30.05S
FRANKFORT      SUNNY     63  52  67 SW8       30.05S
GAYLORD        PTSUNNY   66  46  48 W10       30.01F
GRAYLING       PTSUNNY   68  47  47 W7        30.01F
HARBOR SPRINGS MOSUNNY   62  51  67 W7        30.01S
HOUGHTON LAKE  CLOUDY    63  51  65 N5        30.03F
MANISTEE       SUNNY     66  53  63 W10       30.04F
OSCODA         PTSUNNY   72  43  34 NW8G20    29.98S
PELLSTON       MOSUNNY   69  46  43 NW8       30.00F
ROGERS CITY    PTSUNNY   66  49  54 N7        30.00S
TRAVERSE CITY  CLOUDY    71  45  39 NW13      30.00S
$$
MIZ007>008-015-272000-
EASTERN UPPER MICHIGAN

CITY           SKY/WX    TMP DP  RH WIND       PRES   REMARKS
KINROSS        MOSUNNY   66  43  43 NW9       29.97F
MACKINAC ISLAN CLOUDY    62  53  72 SW12G18   29.99F
NEWBERRY       MOSUNNY   67  46  46 NW9       29.97F
S. S. MARIE    SUNNY     67  48  50 W9        29.97S
MUNISING         N/A     66  46  48 NE6       29.97F
$$
MIZ004>006-011>014-085-272000-
CENTRAL UPPER MICHIGAN

CITY           SKY/WX    TMP DP  RH WIND       PRES   REMARKS
MANISTIQUE     MOSUNNY   63  51  65 S10       29.99F
ESCANABA       MOSUNNY   68  52  56 S10       30.00S
MENOMINEE      MOSUNNY   71  53  52 W6        30.00F
SAWYER-GWINN   SUNNY     68  45  42 CALM      29.99S
$$
MIZ001>003-009>011-084-272000-
WESTERN UPPER MICHIGAN

CITY           SKY/WX    TMP DP  RH WIND       PRES   REMARKS
IRON MOUNTAIN  MOSUNNY   72  44  36 N8        29.98F
HOUGHTON       SUNNY     72  45  37 W14G22    29.95F
COPPER HARBOR    N/A     65  53  65 N9        29.93F
IRONWOOD       SUNNY     70  45  40 VRB6      29.97F
$$

ABBREVIATIONS USED IN REMARKS
   TC - TEMPERATURE IN CELSIUS
  WCI - WIND CHILL INDEX
   HX - HEAT INDEX
  VSB - VISIBILITY





USA.gov is the U.S. government's official web portal to all federal, state and local government web resources and services.